COSMOS 2474 (742) (37829 NORAD) Tracking and Keplerian Element Data

This shows tracking and keplerian element data for the satellite.

Feedback or suggestion? Click here.




ElementValue
Catalog37829
NameCOSMOS 2474 (742)
Epoch Orbit5284
Epoch Day198.65678961
Epoch Year2018
RAAN170.7903
Inclination64.5121
Eccentricity0.0010984
Argument of Perigee253.8345
Mean Anonmoly263.221
Mean Motion2.13101955
Decay Rate6.4E-07
L11 37829U 11055A 18198.65678961 .00000064 00000-0 00000+0 0 9995
L22 37829 64.5121 170.7903 0010984 253.8345 263.2210 2.13101955 52841

Live tracking and technical data element details for COSMOS 2474 (742) (NORAD 37829). COSMOS 2474 (742) can be tracked NOW for your location showing map with azimuth and elevation plus other details from your city location.

Track the satellite on the map from your city or location and see movement details for azimuth, elevation, latitude, longitude, range, height, and movement on the map or in text.







IsCatalogInMostPopularTable: catalog: 37829, numindb: 35
Update: records affected: 1



GetName: 37829 COSMOS 2474 (742)

Hit Count: updated at: Wed, 18 Jul 2018 20:26:32 GMT